This is the latest recevied weather packets stored in our database for station/object KC1TEM-13. If no packets are shown the sender has not sent any weather packets the latest 1 day(s).
| Time | Temp. | Humidity | Pressure | Rain* | Wind** | Luminosity | Snow |
|---|---|---|---|---|---|---|---|
| 1836274820 | 10.56° C | 86% | 1021.2 hPa | 0 mm | 0 m/s | 0 W/m² | - |
| 1836274518 | 11.11° C | 86% | 1020.9 hPa | 0 mm | 0 m/s | 0 W/m² | - |
| 1836274371 | 10.56° C | 87% | 1020.9 hPa | 0 mm | 0 m/s | 0 W/m² | - |
| 1836274217 | 11.11° C | 86% | 1020.9 hPa | 0 mm | 0 m/s | 0 W/m² | - |
| 1836273916 | 11.11° C | 86% | 1020.9 hPa | 0 mm | 0 m/s | 0 W/m² | - |
| 1778049248 | 18.33° C | 60% | 1009.3 hPa | 0 mm | 0.45 m/s, 207° | 0 W/m² | - |
| 1778048946 | 18.33° C | 60% | 1009.1 hPa | 0 mm | 0.89 m/s, 199° | 0 W/m² | - |
| 1778048644 | 18.33° C | 60% | 1009.1 hPa | 0 mm | 0 m/s | 0 W/m² | - |
| 1778048340 | 18.33° C | 60% | 1009.3 hPa | 0 mm | 0.89 m/s, 180° | 0 W/m² | - |
| 1778048037 | 18.33° C | 60% | 1009.2 hPa | 0 mm | 1.34 m/s, 191° | 0 W/m² | - |
| 1778047735 | 18.33° C | 60% | 1008.9 hPa | 0 mm | 0.89 m/s, 153° | 0 W/m² | - |
| 1778047433 | 18.33° C | 59% | 1009.1 hPa | 0 mm | 0 m/s | 0 W/m² | - |
| 1778047129 | 18.33° C | 59% | 1009.2 hPa | 0 mm | 0.89 m/s, 248° | 0 W/m² | - |
| 1778046826 | 17.78° C | 59% | 1009.4 hPa | 0 mm | 1.79 m/s, 253° | 0 W/m² | - |
| 1778046523 | 17.78° C | 59% | 1009.3 hPa | 0 mm | 1.34 m/s, 253° | 0 W/m² | - |
| 1778046220 | 17.78° C | 60% | 1009.1 hPa | 0 mm | 0.89 m/s, 248° | 0 W/m² | - |
| 1778045916 | 17.78° C | 60% | 1009.3 hPa | 0 mm | 0 m/s | 0 W/m² | - |
| 1778045615 | 17.78° C | 59% | 1009.4 hPa | 0 mm | 0.45 m/s, 121° | 0 W/m² | - |
| 1778045313 | 17.78° C | 59% | 1009.4 hPa | 0 mm | 0.89 m/s, 183° | 0 W/m² | - |
| 1778045011 | 17.78° C | 59% | 1009.4 hPa | 0 mm | 0.89 m/s, 210° | 0 W/m² | - |
| 1778044708 | 17.78° C | 59% | 1009.2 hPa | 0 mm | 0.45 m/s, 172° | 0 W/m² | - |
| 1778044405 | 17.78° C | 59% | 1009.4 hPa | 0 mm | 1.34 m/s, 179° | 0 W/m² | - |
| 1778044102 | 17.78° C | 59% | 1009.4 hPa | 0 mm | 0.89 m/s, 139° | 0 W/m² | - |
| 1778043799 | 18.33° C | 59% | 1009.7 hPa | 0 mm | 0 m/s | 0 W/m² | - |
| 1778043496 | 17.78° C | 59% | 1009.6 hPa | 0 mm | 0.89 m/s, 159° | 0 W/m² | - |
* Rain latest hour (hover to see other rain measurements)
** Current wind speed in m/s (hover to see current wind gust speed)